User: anonymous   Login
Location: Peterborough
(44.3091°N, 78.3197°W)
Time: 19:44:20
(UTC-04:00)
Language:

Transit 2A Rocket - Orbit

View from above orbital plane
View from above orbital plane
View from above satellite
View from above satellite

Ground track
Ground track

The orbit data is extracted from the following two-line orbital elements,

1 00047U 60007C   24139.60640572  .00000930  00000-0  22478-3 0  9991
2 00047  66.6651 285.7453 0227094 333.8703  25.1078 14.43549533341099
Epoch (UTC): 18 May 2024 14:33:13
Eccentricity: 0.0227094
inclination: 66.6651°
perigee height: 585 km
apogee height: 908 km
right ascension of ascending node: 285.7453°
argument of perigee: 333.8703°
revolutions per day: 14.43549533
mean anomaly at epoch: 25.1078°
orbit number at epoch: 34109

The dashed part of the orbit path shows where the satellite is in the earth's shadow,  

DLR